| time (UTC) | temp F | wind direction | speed knots | gust knots | rain 1hr in | rain 24hr in | rain mn in | humidity % | barometer mb |
| 20260905065959 | 80 | 133 | 0.0 | 5.2 | 0.00 | 0.00 | 0.00 | 84 | 1011.0 |
| 20260905062958 | 81 | 132 | 0.0 | 7.0 | 0.00 | 0.00 | 0.00 | 83 | 1010.9 |
| 20260905055957 | 81 | 128 | 0.0 | 7.0 | 0.00 | 0.00 | 0.00 | 81 | 1010.9 |
| 20260905052956 | 82 | 128 | 0.0 | 6.1 | 0.00 | 0.00 | 0.00 | 78 | 1010.9 |
| 20260905045956 | 82 | 128 | 0.0 | 7.0 | 0.00 | 0.00 | 0.00 | 77 | 1011.1 |
| 20260905042955 | 83 | 128 | 0.0 | 7.8 | 0.00 | 0.00 | 0.00 | 75 | 1011.0 |
| 20260905035954 | 83 | 126 | 0.0 | 5.2 | 0.00 | 0.00 | 0.00 | 73 | 1010.8 |
| 20260905032953 | 83 | 126 | 0.0 | 6.1 | 0.00 | 0.00 | 0.00 | 71 | 1010.7 |
| 20260905022952 | 85 | 127 | 0.0 | 5.2 | 0.00 | 0.00 | 0.00 | 71 | 1010.2 |
| 20260905015951 | 85 | 127 | 0.0 | 7.0 | 0.00 | 0.00 | 0.00 | 69 | 1010.0 |
| 20260905012950 | 86 | 127 | 0.0 | 7.8 | 0.00 | 0.00 | 0.00 | 67 | 1009.7 |
| 20260905005950 | 87 | 125 | 5.2 | 12.2 | 0.00 | 0.00 | 0.00 | 63 | 1009.3 |
| 20260905002948 | 89 | 119 | 1.7 | 12.2 | 0.00 | 0.00 | 0.00 | 61 | 1009.2 |
| 20260904235948 | 90 | 143 | 6.1 | 13.9 | 0.00 | 0.00 | 0.00 | 59 | 1008.8 |
| 20260904225946 | 93 | 125 | 0.0 | 11.3 | 0.00 | 0.00 | 0.00 | 46 | 1008.8 |
| 20260904222945 | 94 | 148 | 3.5 | 8.7 | 0.00 | 0.00 | 0.00 | 41 | 1009.1 |
| 20260904215945 | 94 | 132 | 7.0 | 10.4 | 0.00 | 0.00 | 0.00 | 43 | 1009.1 |
| 20260904212944 | 93 | 128 | 3.5 | 11.3 | 0.00 | 0.00 | 0.00 | 46 | 1009.5 |
| 20260904205943 | 94 | 103 | 0.9 | 13.0 | 0.00 | 0.00 | 0.00 | 47 | 1009.9 |
| 20260904202942 | 92 | 130 | 10.4 | 12.2 | 0.00 | 0.00 | 0.00 | 56 | 1010.0 |
| 20260904200012 | 92 | 118 | 0.9 | 11.3 | 0.00 | 0.00 | 0.00 | 60 | 1010.5 |
| 20260904192941 | 90 | 123 | 0.0 | 14.8 | 0.00 | 0.00 | 0.00 | 62 | 1010.6 |
| 20260904185940 | 89 | 121 | 7.0 | 12.2 | 0.00 | 0.00 | 0.00 | 64 | 1010.9 |
| 20260904175938 | 88 | 165 | 5.2 | 13.0 | 0.00 | 0.00 | 0.00 | 69 | 1011.6 |
| 20260904173008 | 87 | 184 | 0.0 | 7.8 | 0.00 | 0.00 | 0.00 | 71 | 1012.0 |
| 20260904170007 | 85 | 192 | 0.0 | 7.0 | 0.00 | 0.00 | 0.00 | 74 | 1012.0 |
| 20260904163006 | 84 | 191 | 1.7 | 6.1 | 0.00 | 0.00 | 0.00 | 77 | 1011.8 |
| 20260904160005 | 83 | 192 | 0.0 | 6.1 | 0.00 | 0.00 | 0.00 | 81 | 1011.6 |
| 20260904153005 | 82 | 191 | 5.2 | 7.8 | 0.00 | 0.00 | 0.00 | 85 | 1011.5 |
| 20260904150004 | 81 | 201 | 0.9 | 10.4 | 0.00 | 0.00 | 0.00 | 86 | 1011.2 |
| 20260904143003 | 81 | 162 | 0.0 | 7.0 | 0.00 | 0.00 | 0.00 | 87 | 1011.4 |
| 20260904140003 | 80 | 153 | 0.0 | 5.2 | 0.00 | 0.00 | 0.00 | 89 | 1011.4 |
| 20260904133002 | 80 | 153 | 0.0 | 0.0 | 0.00 | 0.00 | 0.00 | 90 | 1011.6 |
| 20260904123000 | 79 | 153 | 0.0 | 8.7 | 0.00 | 0.00 | 0.00 | 90 | 1011.1 |
| 20260904115959 | 79 | 157 | 0.0 | 8.7 | 0.00 | 0.00 | 0.00 | 90 | 1010.5 |
| 20260904105958 | 80 | 173 | 1.7 | 7.0 | 0.00 | 0.00 | 0.00 | 89 | 1010.2 |
| 20260904102957 | 80 | 177 | 0.0 | 6.1 | 0.00 | 0.00 | 0.00 | 88 | 1010.1 |
| 20260904095956 | 80 | 178 | 1.7 | 7.0 | 0.00 | 0.00 | 0.00 | 88 | 1010.0 |
| 20260904092955 | 80 | 179 | 0.0 | 5.2 | 0.00 | 0.00 | 0.00 | 88 | 1009.9 |
| 20260904085955 | 80 | 180 | 0.9 | 7.8 | 0.00 | 0.00 | 0.00 | 87 | 1009.9 |
| 20260904082954 | 80 | 182 | 1.7 | 7.8 | 0.00 | 0.00 | 0.00 | 86 | 1010.1 |
| 20260904075953 | 80 | 169 | 0.9 | 12.2 | 0.00 | 0.00 | 0.00 | 86 | 1010.1 |
| 20260904072952 | 80 | 171 | 5.2 | 10.4 | 0.00 | 0.00 | 0.00 | 85 | 1010.1 |